"Pseudo-MPEC" for C34XD22

Created 2020 Sep 26 20:07:04 UT using Find_Orb

Click here for an explanation of pseudo-MPECs

 
 Astrometry: 
     C34XD22  C2020 09 10.27566 23 02 37.78 +00 18 38.5    ~9A7M 20.1 GVNEOCPG96
     C34XD22  C2020 09 10.28084 23 02 42.74 +00 20 15.5    ~9A7M 21.0 GVNEOCPG96
     C34XD22  C2020 09 10.28603 23 02 47.72 +00 21 52.0    ~9A7M 20.2 GVNEOCPG96
     C34XD22  C2020 09 10.29121 23 02 52.52 +00 23 26.7    ~9A7M 20.9 GVNEOCPG96
     C34XD22  C2020 09 10.36122 23 03 58.28 +00 44 46.9    ~9A97 19.9 GVNEOCPI52
     C34XD22  C2020 09 10.36270 23 03 59.64 +00 45 13.6    ~9A97 20.6 GVNEOCPI52
     C34XD22  C2020 09 10.36418 23 04 01.07 +00 45 40.8    ~9A97 20.6 GVNEOCPI52
     C34XD22  C2020 09 10.36566 23 04 02.41 +00 46 07.2    ~9A97 20.6 GVNEOCPI52

Station data:
(G96) Mt. Lemmon Survey  (N32.442754 W110.788720)  US/Arizona.  Observers T.
   A. Pruyne, B. M. Africano, E. J. Christensen, G. A. Farneth, D. C. Fuls,
   A. R. Gibbs, A. D. Grauer, H. Gröller, J. A. Johnson, R. A. Kowalski, S.
   M. Larson, G. J. Leonard, D. Rankin, R. L. Seaman, F. C. Shelly. 1.5-m
   reflector + 10K CCD.
(I52) Steward Observatory, Mt. Lemmon Station  (N32.442547 W110.788920)
   US/Arizona.  Observers T. A. Pruyne, B. M. Africano, E. J. Christensen, G.
   A. Farneth, D. C. Fuls, A. R. Gibbs, A. D. Grauer, H. Gröller, J. A.
   Johnson, R. A. Kowalski, S. M. Larson, G. J. Leonard, D. Rankin, R. L.
   Seaman, F. C. Shelly. 1.0-m reflector + CCD.

Orbital elements:  C34XD22
   Perihelion 2020 Aug 11.741182 +/- 6.03 TT = 17:47:18 (JD 2459073.241182)
Epoch 2020 Sep 10.0 TT = JDT 2459102.5   Earth MOID: 0.0083   AutoNEOCP
M  12.26742221 +/- 18               (J2000 ecliptic)
n   0.41927265 +/- 0.672            Peri.  326.62022 +/- 6
a   1.76795698 +/- 1.89             Node   346.05063 +/- 0.18
e   0.4490644 +/- 0.601             Incl.    5.04132 +/- 5.0
P   2.35/858.61d           H 28.3   G  0.15   U 12.5  
q 0.97403043 +/- 0.0368    Q 2.56188352 +/- 5.58
From 8 observations 2020 Sept. 10 (2.2 hr); mean residual 0".43
Residuals in arcseconds: 
200910 G96  .37-  .42-    200910 G96  .68-  .56-    200910 I52  .43+  .31+    
200910 G96  .12+  .36+    200910 I52  .07+  .15-    200910 I52  .22-  .01+    
200910 G96  .93+  .62+    200910 I52  .28-  .18-    

Ephemerides (geocentric):
Date (UTC) HH   RA              Dec         delta   r     elong  mag " sig PA
---- -- -- --  -------------   -----------  ------ ------ -----  --- ---- ---
2020 09 26 20  00 18 06.553   +20 07 32.96  .10894 1.1062 161.4 24.6 163d 152
2020 09 26 21  00 18 09.145   +20 07 58.85  .10917 1.1064 161.4 24.6 163d 152
2020 09 26 22  00 18 11.726   +20 08 24.55  .10940 1.1066 161.4 24.6 163d 152
2020 09 26 23  00 18 14.296   +20 08 50.06  .10963 1.1068 161.4 24.6 163d 152
2020 09 27 00  00 18 16.856   +20 09 15.39  .10986 1.1070 161.4 24.6 163d 152
2020 09 27 01  00 18 19.405   +20 09 40.54  .11009 1.1072 161.5 24.6 163d 153
2020 09 27 02  00 18 21.944   +20 10 05.50  .11032 1.1074 161.5 24.6 163d 153
2020 09 27 03  00 18 24.473   +20 10 30.28  .11055 1.1077 161.5 24.6 163d 153
2020 09 27 04  00 18 26.991   +20 10 54.88  .11078 1.1079 161.5 24.6 163d 153
2020 09 27 05  00 18 29.499   +20 11 19.30  .11101 1.1081 161.5 24.6 163d 153
2020 09 27 06  00 18 31.997   +20 11 43.54  .11124 1.1083 161.5 24.6 163d 153
2020 09 27 07  00 18 34.485   +20 12 07.60  .11148 1.1085 161.5 24.6 163d 153
2020 09 27 08  00 18 36.963   +20 12 31.49  .11171 1.1087 161.5 24.6 163d 153
2020 09 27 09  00 18 39.431   +20 12 55.20  .11194 1.1089 161.5 24.6 163d 153
2020 09 27 10  00 18 41.889   +20 13 18.73  .11217 1.1092 161.5 24.6 163d 153
2020 09 27 11  00 18 44.338   +20 13 42.10  .11240 1.1094 161.6 24.6 163d 153
2020 09 27 12  00 18 46.776   +20 14 05.28  .11263 1.1096 161.6 24.6 163d 153
2020 09 27 13  00 18 49.205   +20 14 28.30  .11286 1.1098 161.6 24.6 163d 153
2020 09 27 14  00 18 51.624   +20 14 51.14  .11309 1.1100 161.6 24.6 163d 153
2020 09 27 15  00 18 54.034   +20 15 13.82  .11332 1.1102 161.6 24.6 163d 153
2020 09 27 16  00 18 56.434   +20 15 36.32  .11356 1.1105 161.6 24.6 163d 153
2020 09 27 17  00 18 58.824   +20 15 58.66  .11379 1.1107 161.6 24.6 163d 153
2020 09 27 18  00 19 01.205   +20 16 20.83  .11402 1.1109 161.6 24.7 163d 153
2020 09 27 19  00 19 03.577   +20 16 42.83  .11425 1.1111 161.6 24.7 163d 154
2020 09 27 20  00 19 05.940   +20 17 04.67  .11448 1.1113 161.7 24.7 163d 154
2020 09 27 21  00 19 08.293   +20 17 26.34  .11471 1.1115 161.7 24.7 162d 154
2020 09 27 22  00 19 10.637   +20 17 47.85  .11495 1.1117 161.7 24.7 162d 154
2020 09 27 23  00 19 12.972   +20 18 09.20  .11518 1.1120 161.7 24.7 162d 154
2020 09 28 00  00 19 15.298   +20 18 30.38  .11541 1.1122 161.7 24.7 162d 154
2020 09 28 01  00 19 17.615   +20 18 51.40  .11564 1.1124 161.7 24.7 162d 154
2020 09 28 02  00 19 19.923   +20 19 12.26  .11587 1.1126 161.7 24.7 162d 154
2020 09 28 03  00 19 22.222   +20 19 32.97  .11611 1.1128 161.7 24.7 162d 154
2020 09 28 04  00 19 24.512   +20 19 53.51  .11634 1.1131 161.7 24.7 162d 154
2020 09 28 05  00 19 26.794   +20 20 13.89  .11657 1.1133 161.7 24.7 162d 154
2020 09 28 06  00 19 29.066   +20 20 34.12  .11680 1.1135 161.8 24.7 162d 154
2020 09 28 07  00 19 31.330   +20 20 54.19  .11704 1.1137 161.8 24.7 162d 154
2020 09 28 08  00 19 33.586   +20 21 14.11  .11727 1.1139 161.8 24.7 162d 154
2020 09 28 09  00 19 35.832   +20 21 33.87  .11750 1.1141 161.8 24.7 162d 154
2020 09 28 10  00 19 38.071   +20 21 53.48  .11774 1.1144 161.8 24.7 162d 154
2020 09 28 11  00 19 40.300   +20 22 12.93  .11797 1.1146 161.8 24.7 162d 154
2020 09 28 12  00 19 42.522   +20 22 32.24  .11820 1.1148 161.8 24.7 162d 154
2020 09 28 13  00 19 44.735   +20 22 51.39  .11844 1.1150 161.8 24.7 162d 154
2020 09 28 14  00 19 46.939   +20 23 10.39  .11867 1.1152 161.8 24.7 162d 154
2020 09 28 15  00 19 49.136   +20 23 29.24  .11890 1.1154 161.9 24.7 162d 154
2020 09 28 16  00 19 51.324   +20 23 47.94  .11914 1.1157 161.9 24.7 162d 155
2020 09 28 17  00 19 53.504   +20 24 06.49  .11937 1.1159 161.9 24.8 162d 155
2020 09 28 18  00 19 55.676   +20 24 24.90  .11960 1.1161 161.9 24.8 162d 155
2020 09 28 19  00 19 57.839   +20 24 43.15  .11984 1.1163 161.9 24.8 162d 155